Waarnemingen

Advertentie
Mijn weer
Oostende Airport, België (6407): temperatuur & dauwpunt: 13.01.2020 07:00:00 - 19.01.2020 07:00:00 (CET)Oostende Airport, België (6407): windsnelheid & windstoten: 13.01.2020 07:00:00 - 19.01.2020 07:00:00 (CET)Oostende Airport, België (6407): windrichting: 13.01.2020 07:00:00 - 19.01.2020 07:00:00 (CET)Oostende Airport, België (6407): luchtdruk: 13.01.2020 07:00:00 - 19.01.2020 07:00:00 (CET)Oostende Airport, België (6407): zicht: 13.01.2020 07:00:00 - 19.01.2020 07:00:00 (CET)
Datum & Tijd tt [°C] td [°C] ff [km/u] ff [kn] fx [km/u] fx [kn] dd ppp [hPa] vv [km]
19.01.2020 07:00:00 5,0 2,0 22 12 - - NO - 10
19.01.2020 06:00:00 6,4 2,0 26 14 36 19 NNO 1036,5 10
19.01.2020 05:00:00 6,0 3,0 18 10 47 25 N 1036,3 10
19.01.2020 04:00:00 5,3 2,3 11 6 - - N 1035,5 10
19.01.2020 03:00:00 6,5 2,2 21 11 32 18 N 1035,1 10
19.01.2020 02:00:00 6,3 2,4 22 12 32 18 NNW 1034,0 10
19.01.2020 01:00:00 6,2 1,7 18 10 - - N 1033,5 10
19.01.2020 00:00:00 6,1 0,8 21 11 32 18 NNW 1032,7 10
18.01.2020 23:00:00 6,2 1,2 22 12 32 18 NNW 1032,1 10
18.01.2020 22:00:00 6,3 0,7 22 12 - - NNW 1031,9 10
18.01.2020 21:00:00 6,1 1,0 22 12 32 18 NNW 1031,4 10
18.01.2020 20:00:00 6,0 1,1 18 10 25 14 NW 1030,9 10
18.01.2020 19:00:00 5,6 1,0 16 9 - - NW 1030,3 10
18.01.2020 18:00:00 5,8 0,6 16 9 25 14 NW 1029,6 10
18.01.2020 17:00:00 5,9 1,6 16 9 25 14 NW 1028,9 10
18.01.2020 16:00:00 6,3 1,9 18 10 - - NW 1028,4 10
18.01.2020 15:00:00 6,7 2,2 18 10 32 18 NW 1027,6 10
18.01.2020 14:00:00 6,5 2,1 24 13 32 18 NW 1027,2 10
18.01.2020 13:00:00 7,2 2,5 22 12 - - NW 1026,9 10
18.01.2020 12:00:00 6,3 1,7 24 13 36 19 WNW 1026,6 10
18.01.2020 11:00:00 6,1 2,4 24 13 36 19 WNW 1026,1 10
18.01.2020 10:00:00 5,9 2,0 26 14 - - WNW 1025,2 10
18.01.2020 09:00:00 5,7 2,3 26 14 40 21 WNW 1024,6 10
18.01.2020 08:00:00 5,9 3,0 24 13 32 18 WNW 1023,6 10
18.01.2020 07:00:00 5,1 2,5 21 11 - - W 1022,8 10
18.01.2020 06:00:00 5,0 2,3 15 8 29 16 W 1022,5 10
18.01.2020 05:00:00 4,1 2,5 18 10 29 16 WZW 1022,3 10
18.01.2020 04:00:00 4,1 2,5 18 10 - - ZW 1022,0 10
18.01.2020 03:00:00 4,0 2,6 16 9 36 19 ZZW 1021,5 10
18.01.2020 02:00:00 4,4 2,5 18 10 58 31 WZW 1021,5 7
18.01.2020 01:00:00 4,3 2,1 21 11 - - ZW 1020,7 10
18.01.2020 00:00:00 3,2 1,3 16 9 22 12 ZZW 1020,3 10
17.01.2020 23:00:00 3,3 1,2 16 9 22 12 ZW 1019,9 10
17.01.2020 22:00:00 3,3 1,3 15 8 - - ZW 1019,5 10
17.01.2020 21:00:00 4,9 1,7 16 9 36 19 ZZW 1019,1 10
17.01.2020 20:00:00 6,7 0,8 26 14 43 23 W 1018,4 10
17.01.2020 19:00:00 7,4 2,3 29 16 - - WNW 1017,7 10
17.01.2020 18:00:00 7,7 3,8 37 20 58 31 WZW 1016,4 10
17.01.2020 17:00:00 7,7 3,5 41 22 65 35 WZW 1015,4 10
17.01.2020 16:00:00 8,4 3,7 39 21 - - WZW 1014,3 10
17.01.2020 15:00:00 9,8 5,3 35 19 54 29 ZW 1013,7 10
17.01.2020 14:00:00 9,9 5,7 35 19 47 25 ZW 1013,4 10
17.01.2020 13:00:00 9,7 7,0 26 14 - - ZW 1013,4 10
17.01.2020 12:00:00 9,6 7,8 22 12 32 18 ZW 1013,3 10
17.01.2020 11:00:00 9,2 7,8 21 11 29 16 ZZW 1013,1 10
17.01.2020 10:00:00 8,8 7,4 16 9 - - Z 1012,7 10
17.01.2020 09:00:00 8,6 7,1 16 9 32 18 Z 1012,5 9
17.01.2020 08:00:00 8,4 6,8 16 9 25 14 Z 1012,1 10
17.01.2020 07:00:00 8,3 6,7 11 6 - - Z 1012,7 10
17.01.2020 06:00:00 8,9 6,5 16 9 29 16 ZZW 1012,5 7
17.01.2020 05:00:00 9,3 6,2 16 9 32 18 Z 1012,5 10
17.01.2020 04:00:00 9,6 5,9 22 12 - - Z 1012,9 10
17.01.2020 03:00:00 9,6 5,7 21 11 36 19 Z 1013,6 10
17.01.2020 02:00:00 9,0 5,6 18 10 32 18 Z 1014,1 10
17.01.2020 01:00:00 9,2 5,5 24 13 - - Z 1014,5 10
17.01.2020 00:00:00 9,6 5,7 24 13 36 19 Z 1015,2 10
16.01.2020 23:00:00 9,6 5,6 22 12 40 21 Z 1015,2 10
16.01.2020 22:00:00 10,1 5,7 26 14 - - Z 1015,5 10
16.01.2020 21:00:00 9,6 5,9 26 14 40 21 Z 1015,8 10
16.01.2020 20:00:00 9,7 6,3 26 14 40 21 Z 1016,3 10
16.01.2020 19:00:00 9,6 7,1 26 14 - - ZZO 1016,5 10
16.01.2020 18:00:00 9,1 7,1 26 14 36 19 ZZO 1017,1 10
16.01.2020 17:00:00 9,1 7,1 22 12 40 21 ZZO 1017,9 10
16.01.2020 16:00:00 9,2 6,9 29 16 - - ZZO 1018,3 10
16.01.2020 15:00:00 8,6 6,5 28 15 40 21 ZZO 1019,2 10
16.01.2020 14:00:00 7,9 6,1 28 15 40 21 ZZO 1020,4 10
16.01.2020 13:00:00 6,5 5,0 26 14 - - Z 1021,4 9
16.01.2020 12:00:00 5,2 3,9 26 14 40 21 Z 1022,4 5
16.01.2020 11:00:00 5,0 3,5 21 11 32 18 ZZO 1023,0 6
16.01.2020 10:00:00 3,5 2,4 18 10 - - ZZO 1023,1 5
16.01.2020 09:00:00 3,2 2,0 16 9 25 14 ZZO 1023,2 7
16.01.2020 08:00:00 3,0 1,9 15 8 22 12 ZZO 1023,5 8
16.01.2020 07:00:00 2,8 1,7 15 8 - - ZZO 1023,9 9
16.01.2020 06:00:00 2,9 1,6 11 6 14 8 ZZO 1023,8 10
16.01.2020 05:00:00 3,3 2,0 9 5 18 10 Z 1023,7 10
16.01.2020 04:00:00 3,8 2,6 11 6 - - Z 1023,4 10
16.01.2020 03:00:00 4,3 3,0 13 7 22 12 Z 1022,7 10
16.01.2020 02:00:00 4,7 3,6 15 8 22 12 ZZW 1022,4 10
16.01.2020 01:00:00 4,9 3,5 15 8 - - ZZW 1022,2 10
16.01.2020 00:00:00 4,9 3,7 18 10 22 12 ZZW 1021,6 10
15.01.2020 23:00:00 4,9 3,6 15 8 25 14 ZZW 1020,8 10
15.01.2020 22:00:00 5,6 4,3 18 10 - - ZW 1019,9 10
15.01.2020 21:00:00 5,2 3,7 16 9 29 16 ZW 1019,1 10
15.01.2020 20:00:00 5,3 3,8 21 11 25 14 ZZW 1017,9 10
15.01.2020 19:00:00 5,5 4,1 16 9 - - ZZW 1016,7 10
15.01.2020 18:00:00 6,0 4,5 15 8 22 12 ZW 1015,3 10
15.01.2020 17:00:00 7,2 5,3 15 8 18 10 ZW 1013,8 10
15.01.2020 16:00:00 7,2 5,3 13 7 - - W 1011,8 10
15.01.2020 15:00:00 7,2 5,6 26 14 40 21 WNW 1010,7 5
15.01.2020 14:00:00 8,9 7,2 29 16 47 25 ZZW 1008,8 5
15.01.2020 13:00:00 9,4 6,6 29 16 - - ZZW 1008,1 10
15.01.2020 12:00:00 9,8 5,5 29 16 43 23 Z 1007,2 10
15.01.2020 11:00:00 10,0 5,2 28 15 50 27 Z 1006,3 10
15.01.2020 10:00:00 9,5 5,1 28 15 - - Z 1005,8 10
15.01.2020 09:00:00 9,4 4,8 29 16 54 29 Z 1005,7 10
15.01.2020 08:00:00 9,3 4,9 29 16 47 25 Z 1005,5 10
15.01.2020 07:00:00 9,6 4,9 29 16 - - Z 1005,4 10
15.01.2020 06:00:00 9,7 5,3 28 15 54 29 Z 1005,1 10
15.01.2020 05:00:00 10,3 5,8 31 17 58 31 Z 1004,8 10
15.01.2020 04:00:00 10,6 5,9 37 20 - - Z 1004,6 10
15.01.2020 03:00:00 11,0 7,2 37 20 61 33 Z 1004,6 10
15.01.2020 02:00:00 11,3 7,6 41 22 65 35 ZZW 1004,7 10
15.01.2020 01:00:00 11,3 8,3 42 23 - - ZZW 1004,6 10
15.01.2020 00:00:00 11,3 8,9 42 23 72 39 ZZW 1004,6 10
14.01.2020 23:00:00 11,1 9,1 46 25 68 37 ZZW 1004,2 10
14.01.2020 22:00:00 11,5 8,9 44 24 - - ZZW 1003,4 10
14.01.2020 21:00:00 11,4 9,0 42 23 72 39 ZZW 1003,1 10
14.01.2020 20:00:00 12,1 8,8 46 25 61 33 ZZW 1002,8 10
14.01.2020 19:00:00 11,7 9,0 41 22 - - ZZW 1002,3 10
14.01.2020 18:00:00 11,8 8,8 41 22 58 31 ZZW 1002,0 10
14.01.2020 17:00:00 11,6 8,8 39 21 65 35 ZZW 1001,7 10
14.01.2020 16:00:00 11,4 8,4 39 21 - - Z 1001,3 10
14.01.2020 15:00:00 10,9 8,2 35 19 50 27 Z 1001,5 10
14.01.2020 14:00:00 10,2 8,5 28 15 54 29 Z 1001,8 10
14.01.2020 13:00:00 9,8 8,3 29 16 - - Z 1002,9 10
14.01.2020 12:00:00 9,0 7,8 26 14 40 21 Z 1003,7 4,2
14.01.2020 11:00:00 8,8 7,2 22 12 40 21 Z 1004,0 10
14.01.2020 10:00:00 8,3 6,8 18 10 - - Z 1003,9 10
14.01.2020 09:00:00 8,0 6,5 21 11 36 19 Z 1003,4 9
14.01.2020 08:00:00 8,0 6,6 21 11 32 18 ZZW 1003,3 10
14.01.2020 07:00:00 8,4 7,1 16 9 - - ZZW 1002,6 8
14.01.2020 06:00:00 8,7 7,3 22 12 54 29 ZW 1002,1 6
14.01.2020 05:00:00 9,5 7,2 37 20 58 31 ZZW 1001,1 8
14.01.2020 04:00:00 9,8 7,1 41 22 - - ZZW 1000,9 10
14.01.2020 03:00:00 9,7 7,4 37 20 54 29 ZZW 1001,3 10
14.01.2020 02:00:00 9,9 7,1 35 19 58 31 Z 1001,5 10
14.01.2020 01:00:00 9,9 7,2 37 20 - - Z 1001,9 10
14.01.2020 00:00:00 10,1 7,1 37 20 65 35 Z 1002,8 10
13.01.2020 23:00:00 9,7 6,9 35 19 54 29 Z 1003,3 10
13.01.2020 22:00:00 9,3 6,8 34 18 - - Z 1003,9 10
13.01.2020 21:00:00 9,3 6,9 34 18 54 29 Z 1005,1 10
13.01.2020 20:00:00 9,1 7,2 37 20 54 29 Z 1006,1 10
13.01.2020 19:00:00 8,9 7,3 31 17 - - Z 1007,2 10
13.01.2020 18:00:00 8,2 6,8 26 14 43 23 Z 1007,8 10
13.01.2020 17:00:00 7,8 6,7 22 12 40 21 Z 1009,3 6
13.01.2020 16:00:00 7,2 6,1 22 12 - - Z 1010,8 4,2
13.01.2020 15:00:00 7,7 5,5 22 12 40 21 Z 1012,1 10
13.01.2020 14:00:00 7,4 4,6 28 15 40 21 Z 1013,5 10
13.01.2020 13:00:00 7,5 4,8 22 12 - - Z 1014,7 10
13.01.2020 12:00:00 6,7 4,7 21 11 40 21 Z 1016,3 10
13.01.2020 11:00:00 5,3 4,1 24 13 40 21 Z 1017,8 6
13.01.2020 10:00:00 4,2 3,0 21 11 - - Z 1018,2 6
13.01.2020 09:00:00 3,7 2,5 13 7 22 12 Z 1018,4 8
13.01.2020 08:00:00 4,0 2,7 13 7 25 14 Z 1018,8 10
13.01.2020 07:00:00 5,0 3,7 16 9 - - Z 1019,2 9

tt = temperatuur
td = dauwpunt
ff = windsnelheid
fx = windstoten
dd = windrichting
ppp = luchtdruk
vv = zicht

Weerstations in de omgeving